Wind_Speed
53 53 53 52 51 51 50 50 49 49 49 49 50 50 50 50 51 51 51 51 51 51 51 51 51 52 52 52 51 52 52 52 52 52 52 52 51 49 47 44 42 40
50 50 50 49 49 49 48 49 49 49 50 50 50 50 50 50 50 50 50 49 49 50 51 52 53 53 54 53 53 53 53 53 53 53 53 52 51 49 46 44 42 41
47 48 48 48 48 48 49 49 50 51 51 51 50 50 50 50 49 48 47 46 46 47 49 50 51 52 53 53 53 53 53 53 53 53 52 51 50 48 45 43 42 41
47 48 48 48 49 49 50 50 51 51 50 50 50 50 49 48 47 46 45 45 46 46 47 48 48 49 49 50 50 51 51 51 51 51 51 49 48 46 44 42 42 41
48 48 48 49 49 50 50 51 51 50 50 50 49 48 47 47 46 46 46 47 47 47 47 48 48 48 48 48 48 48 48 48 49 49 48 47 45 44 42 41 41 41
49 49 49 49 50 51 51 51 51 51 50 49 48 47 47 47 48 48 48 49 49 48 48 48 48 48 48 48 47 47 47 47 48 47 47 46 44 42 41 39 39 40
49 50 50 51 52 53 53 52 51 50 49 48 47 47 48 49 50 50 50 50 49 49 48 49 49 49 48 48 48 48 47 47 47 47 47 46 44 42 40 39 38 39
50 51 52 53 54 54 53 52 51 50 50 49 49 49 50 51 51 51 51 51 50 50 50 51 51 51 51 50 49 48 47 46 45 46 46 45 44 43 41 39 38 38
50 52 53 53 53 53 53 52 52 51 51 51 52 53 53 52 52 52 52 51 51 52 53 53 53 52 52 50 49 48 47 46 45 44 45 44 44 44 42 40 38 37
50 50 51 51 52 52 52 52 52 52 53 54 55 55 54 53 53 53 53 53 54 55 55 54 53 52 51 50 48 47 47 47 46 45 45 44 44 44 43 41 39 38
49 50 50 50 51 52 52 52 53 53 54 55 56 56 55 55 55 55 55 56 56 57 56 54 52 52 51 50 49 48 48 48 49 48 47 45 44 43 43 43 41 39
50 50 51 52 52 53 53 53 54 54 55 55 56 56 55 56 56 57 57 56 55 55 54 53 52 52 52 52 52 51 51 51 51 50 50 48 46 44 43 43 43 41
50 51 52 53 54 54 54 54 54 55 55 56 56 56 57 57 57 57 56 55 55 55 55 54 53 53 54 54 55 54 54 54 53 53 52 50 49 46 45 44 43 43
52 52 53 54 54 54 54 55 55 56 56 57 57 57 58 58 58 57 57 58 59 59 58 57 56 55 55 56 57 58 58 58 57 55 54 52 51 49 47 45 45 44
52 52 53 53 54 54 55 56 56 57 57 58 58 58 59 59 59 60 60 61 61 61 60 60 59 59 58 59 59 60 60 60 59 57 55 54 53 51 49 47 46 46
51 52 53 54 55 56 56 57 57 58 58 59 59 60 60 61 61 62 62 63 62 62 62 62 62 61 61 61 60 61 61 61 60 59 56 55 54 53 52 50 49 47
52 53 54 55 56 57 57 58 58 58 59 60 60 61 62 63 63 63 64 64 64 64 63 63 63 63 62 62 61 61 60 60 59 59 58 56 55 54 54 53 52 50
53 54 55 56 57 57 57 58 58 59 59 60 61 63 64 64 65 65 65 65 64 64 64 64 64 64 63 63 62 61 61 60 59 59 58 58 57 56 55 55 54 53
54 55 56 56 57 57 57 58 58 59 60 61 63 64 65 65 65 65 65 65 65 65 65 65 65 64 64 63 63 62 62 61 61 60 59 59 58 57 57 56 56 56
55 55 56 56 57 57 57 58 58 60 61 63 64 65 66 66 66 66 66 66 65 65 65 65 65 65 65 65 64 64 64 63 62 62 61 60 59 59 58 58 58 57
55 56 56 56 57 57 57 58 59 61 62 64 65 66 67 67 67 67 67 67 66 66 66 66 66 66 67 67 66 66 66 65 64 64 63 62 62 61 60 59 59 59
55 56 56 56 57 57 58 60 61 63 64 66 67 68 68 68 68 68 68 68 67 67 67 68 68 68 68 68 68 68 67 67 66 65 64 64 63 63 62 61 61 61
56 56 56 57 58 59 60 62 63 65 66 68 69 69 70 69 69 69 69 68 68 68 68 69 69 69 69 69 69 69 68 68 67 66 66 65 65 65 65 64 63 62
57 57 58 59 60 61 63 64 65 67 68 69 70 71 71 71 71 71 70 69 68 69 69 70 70 70 70 71 71 70 70 70 69 69 68 67 67 66 66 66 66 65
59 59 60 62 63 64 65 66 68 69 70 71 72 72 72 72 72 71 70 69 69 70 70 71 72 72 73 73 73 73 73 72 71 71 70 69 69 68 68 67 67 67
62 63 63 64 65 66 67 69 70 71 72 73 73 73 73 72 71 70 70 70 71 72 73 73 74 74 75 75 75 75 74 73 73 72 71 70 69 69 68 68 67 67
Wind_Direction
267 268 269 271 272 274 275 276 278 279 279 279 279 280 280 281 283 283 282 281 281 281 281 282 282 283 283 284 285 286 287 288 289 290 291 292 293 294 295 294 293 292
267 269 270 271 273 274 275 277 277 278 278 279 279 280 281 283 285 285 284 284 283 283 283 283 283 283 283 284 285 286 286 288 289 289 290 291 292 293 293 293 293 292
268 270 271 272 273 275 276 276 277 278 279 280 281 282 284 285 286 287 286 286 286 286 286 285 285 284 284 284 285 286 286 287 288 289 289 290 291 292 293 293 292 292
269 270 272 273 274 275 276 277 278 279 280 282 283 285 286 286 287 288 287 287 288 288 288 287 287 287 287 286 286 286 287 287 288 288 288 288 289 290 291 292 292 291
270 271 272 273 274 275 276 278 279 280 282 284 286 286 287 287 287 288 287 287 288 289 288 288 288 288 288 288 288 288 288 287 287 287 288 288 288 289 290 290 290 290
270 271 272 272 273 275 277 279 280 282 284 286 286 286 287 287 287 288 288 288 288 289 288 289 288 288 288 288 288 288 288 288 288 288 287 287 287 287 288 288 289 289
270 270 272 273 274 277 279 280 281 282 284 285 286 286 286 287 288 288 288 288 288 288 288 289 289 288 288 288 287 287 287 287 287 287 287 287 287 287 287 287 287 288
270 271 273 274 276 278 279 279 280 282 283 284 285 286 286 287 288 288 288 287 287 287 289 290 289 288 287 286 286 286 286 286 286 286 286 287 287 286 286 286 285 286
271 272 273 275 276 277 277 278 279 281 283 284 285 286 287 287 287 288 288 286 286 287 290 290 289 287 286 285 284 284 285 285 286 286 286 286 286 286 285 285 284 284
271 272 273 274 275 275 276 278 280 282 283 284 285 286 286 286 287 288 288 287 286 288 290 289 288 287 284 282 282 282 284 286 286 286 286 286 285 285 284 284 282 281
271 272 273 274 275 276 277 279 281 282 283 283 284 285 286 286 287 288 289 289 288 288 288 288 287 286 284 282 280 281 284 287 287 287 286 285 284 284 283 282 281 280
271 272 273 274 275 277 279 280 281 281 282 283 284 285 286 287 288 289 289 289 289 289 288 287 286 286 285 283 281 281 283 286 287 287 286 285 284 283 281 280 279 278
270 272 273 274 276 278 279 280 281 281 282 283 284 285 286 287 288 288 288 288 289 290 289 289 288 287 286 285 283 283 284 285 286 286 284 283 282 281 280 278 276 275
271 273 274 275 277 278 279 280 281 282 283 284 285 286 286 287 287 287 287 288 289 290 290 289 289 289 288 287 286 285 285 286 286 285 283 282 280 279 278 277 275 273
272 274 275 276 278 279 280 281 282 283 284 285 286 286 286 287 287 288 289 290 290 290 290 290 289 289 288 288 287 287 286 286 286 284 282 280 279 278 276 275 273 271
273 275 276 278 279 280 281 282 283 284 285 285 286 287 287 288 289 290 291 291 291 291 290 290 290 289 288 288 287 287 287 286 285 283 281 279 277 276 276 274 272 270
274 276 277 278 279 280 282 282 283 284 285 286 287 288 289 290 291 292 292 292 292 291 291 290 290 289 289 288 287 287 286 285 284 283 281 278 277 275 274 274 272 270
274 276 277 278 279 280 281 282 284 285 286 287 288 289 290 291 292 292 292 292 292 292 291 290 290 289 289 288 287 286 285 284 283 282 280 279 277 275 273 273 272 270
274 275 276 277 279 280 282 283 285 286 287 288 289 291 292 292 293 293 293 293 292 292 291 290 289 289 289 288 287 286 285 284 283 282 280 278 276 275 273 272 271 270
273 274 276 278 279 281 282 284 285 287 288 289 290 292 293 293 294 294 294 293 292 291 290 290 289 289 289 288 287 286 285 284 283 282 280 278 276 274 273 271 270 269
273 275 276 278 279 281 282 284 285 287 288 290 291 292 293 293 294 294 294 293 291 291 290 290 290 289 289 288 287 286 285 284 283 281 280 278 276 274 272 271 269 268
273 275 277 278 279 280 282 284 285 287 289 290 291 292 293 293 294 295 294 292 291 290 290 290 290 289 289 288 287 286 285 284 283 281 280 278 277 275 273 271 269 267
273 275 276 277 279 280 282 284 286 287 289 290 291 292 293 294 294 295 294 292 291 290 290 290 290 290 289 289 288 287 286 285 283 282 280 278 276 275 274 272 270 267
273 274 276 277 279 281 282 284 286 287 289 290 291 293 293 294 294 294 293 292 291 290 291 291 291 291 291 290 290 289 288 287 285 283 281 279 277 274 273 271 270 268
273 274 276 277 279 281 283 285 286 287 289 290 292 293 293 293 293 293 292 292 292 292 292 292 293 293 293 292 292 291 290 288 287 284 282 280 278 275 273 271 269 267
273 275 276 278 280 282 284 285 287 288 289 291 292 293 293 293 293 292 292 292 293 293 294 294 294 295 295 294 294 293 292 290 288 286 284 281 279 277 275 272 269 267
Height
10673 10673 10673 10674 10674 10674 10674 10674 10673 10673 10673 10673 10672 10672 10672 10672 10671 10671 10670 10669 10668 10667 10666 10664 10663 10662 10661 10661 10660 10659 10658 10657 10655 10654 10653 10652 10650 10649 10648 10646 10645 10643
10667 10667 10668 10668 10668 10668 10668 10668 10668 10668 10667 10667 10667 10667 10667 10666 10666 10665 10664 10663 10662 10661 10659 10658 10657 10655 10654 10654 10653 10652 10651 10650 10649 10647 10646 10645 10644 10643 10641 10640 10638 10637
10662 10662 10662 10663 10663 10663 10663 10663 10663 10662 10662 10662 10661 10661 10661 10660 10659 10658 10657 10657 10656 10655 10653 10652 10650 10649 10648 10647 10646 10645 10644 10643 10642 10641 10640 10639 10637 10636 10635 10633 10631 10630
10656 10657 10657 10658 10658 10658 10657 10657 10657 10657 10657 10656 10656 10655 10655 10654 10653 10652 10651 10651 10650 10649 10648 10646 10644 10643 10641 10640 10639 10638 10637 10636 10635 10634 10633 10632 10631 10630 10628 10627 10625 10624
10652 10652 10652 10653 10652 10652 10652 10652 10652 10651 10651 10651 10650 10650 10649 10648 10647 10646 10646 10645 10644 10643 10642 10640 10638 10637 10635 10634 10633 10632 10631 10629 10628 10627 10626 10625 10624 10624 10623 10621 10619 10617
10647 10647 10647 10647 10647 10647 10647 10647 10646 10646 10645 10645 10645 10644 10643 10643 10642 10641 10640 10639 10638 10637 10636 10634 10633 10631 10630 10628 10626 10625 10624 10623 10621 10620 10619 10618 10617 10617 10616 10615 10613 10611
10642 10642 10642 10642 10642 10641 10641 10641 10640 10640 10640 10639 10639 10639 10638 10637 10636 10635 10634 10633 10632 10631 10630 10628 10627 10626 10624 10622 10621 10619 10618 10617 10615 10613 10612 10611 10610 10610 10610 10609 10607 10606
10637 10637 10637 10636 10636 10636 10635 10635 10635 10635 10634 10634 10633 10633 10632 10631 10630 10629 10628 10626 10625 10624 10623 10622 10620 10619 10618 10616 10615 10613 10612 10611 10609 10607 10606 10604 10603 10603 10603 10602 10601 10600
10632 10632 10631 10631 10630 10630 10629 10629 10629 10629 10629 10628 10627 10626 10626 10625 10624 10623 10621 10620 10619 10618 10616 10615 10613 10612 10611 10610 10608 10607 10605 10604 10603 10602 10600 10598 10597 10596 10596 10595 10595 10594
10626 10626 10626 10625 10624 10624 10623 10624 10624 10623 10623 10622 10621 10620 10619 10618 10617 10616 10615 10613 10612 10611 10609 10608 10606 10605 10604 10603 10602 10600 10599 10597 10597 10596 10594 10593 10591 10590 10589 10589 10588 10588
10620 10620 10619 10619 10618 10618 10618 10618 10618 10617 10616 10615 10614 10613 10612 10611 10610 10609 10608 10606 10605 10603 10602 10600 10599 10597 10596 10595 10595 10594 10592 10591 10589 10588 10587 10587 10586 10584 10583 10582 10582 10582
10615 10614 10613 10612 10612 10612 10612 10612 10612 10611 10610 10609 10608 10607 10606 10605 10603 10602 10601 10599 10597 10596 10595 10593 10591 10590 10588 10587 10587 10586 10586 10584 10583 10581 10580 10579 10579 10578 10578 10576 10575 10575
10608 10608 10607 10606 10606 10606 10606 10606 10605 10604 10603 10602 10601 10600 10599 10598 10596 10595 10593 10592 10590 10589 10588 10586 10584 10583 10581 10579 10578 10578 10577 10576 10575 10574 10573 10572 10572 10571 10571 10570 10569 10568
10603 10602 10601 10601 10600 10600 10599 10599 10598 10597 10596 10595 10594 10593 10592 10590 10589 10587 10586 10584 10583 10581 10580 10579 10577 10575 10573 10571 10570 10569 10568 10567 10567 10566 10565 10564 10564 10564 10564 10563 10562 10561
10597 10596 10595 10595 10594 10593 10592 10592 10591 10590 10589 10588 10587 10586 10584 10583 10581 10580 10578 10576 10575 10573 10572 10570 10569 10567 10566 10564 10562 10560 10559 10558 10558 10557 10557 10556 10555 10555 10555 10555 10555 10554
10591 10591 10589 10588 10587 10586 10585 10585 10584 10583 10582 10581 10580 10578 10577 10575 10574 10572 10570 10568 10566 10565 10563 10561 10560 10558 10557 10556 10554 10551 10549 10548 10548 10547 10548 10548 10547 10546 10546 10546 10547 10547
10586 10585 10583 10582 10581 10580 10579 10578 10577 10576 10575 10574 10572 10571 10569 10567 10565 10563 10561 10559 10557 10556 10554 10552 10551 10549 10548 10546 10545 10543 10541 10540 10538 10537 10537 10538 10538 10538 10537 10536 10537 10538
10580 10579 10577 10576 10575 10574 10573 10572 10571 10569 10568 10567 10565 10563 10561 10559 10557 10555 10553 10551 10549 10547 10545 10543 10541 10540 10538 10537 10535 10534 10532 10531 10529 10528 10527 10527 10528 10528 10528 10527 10526 10527
10574 10572 10571 10570 10569 10568 10566 10565 10564 10562 10561 10559 10557 10555 10553 10551 10549 10547 10545 10543 10540 10538 10536 10534 10532 10531 10529 10527 10526 10524 10522 10521 10520 10519 10518 10517 10517 10517 10517 10517 10517 10516
10567 10566 10565 10564 10563 10561 10560 10558 10557 10555 10553 10551 10549 10547 10545 10543 10541 10539 10537 10534 10532 10530 10528 10525 10523 10521 10519 10517 10515 10514 10512 10511 10510 10509 10508 10507 10507 10507 10507 10507 10507 10506
10561 10560 10559 10558 10556 10555 10553 10551 10550 10548 10546 10544 10542 10540 10537 10535 10533 10531 10528 10526 10523 10521 10519 10516 10514 10512 10509 10507 10505 10503 10502 10500 10499 10498 10497 10496 10495 10496 10496 10496 10496 10495
10554 10554 10553 10551 10549 10548 10546 10544 10542 10540 10538 10536 10534 10532 10529 10527 10524 10522 10519 10517 10514 10512 10510 10507 10505 10502 10500 10497 10495 10493 10491 10489 10488 10486 10485 10485 10484 10483 10483 10484 10484 10484
10548 10547 10546 10544 10543 10541 10539 10537 10535 10533 10531 10529 10526 10524 10521 10519 10516 10513 10511 10508 10505 10503 10500 10498 10495 10492 10489 10487 10484 10482 10479 10477 10476 10475 10473 10472 10472 10471 10470 10470 10471 10472
10541 10540 10539 10537 10536 10534 10532 10531 10529 10526 10524 10521 10518 10516 10513 10510 10508 10505 10502 10499 10496 10494 10491 10488 10485 10482 10479 10476 10473 10470 10468 10465 10463 10462 10460 10459 10458 10458 10458 10457 10457 10458
10535 10533 10532 10531 10529 10528 10526 10524 10521 10519 10516 10513 10510 10508 10505 10502 10499 10496 10492 10490 10487 10484 10481 10478 10475 10471 10468 10465 10461 10458 10455 10452 10450 10448 10446 10445 10444 10444 10444 10444 10444 10444
10528 10527 10525 10524 10522 10521 10519 10516 10514 10511 10508 10505 10502 10499 10496 10492 10489 10486 10483 10480 10477 10474 10471 10468 10464 10461 10457 10453 10449 10446 10442 10439 10436 10433 10432 10431 10430 10429 10429 10429 10430 10430